Regional Weather Roundup
Issued by NWS

Home | Current Version | Previous Version | Text Only | Print | Product List | Glossary Off
Versions: 1 2 3 4 5 6 7 8 9 10 11 12 13 14 15 16 17 18 19 20 21 22 23 24 25 26 27 28 29 30 31 32 33 34 35 36 37 38 39 40 41 42 43 44 45 46 47 48 49 50

000
ASUS45 KPSR 171910
RWRAZ

ARIZONA HOURLY REGIONAL WEATHER ROUNDUP
NATIONAL WEATHER SERVICE PHOENIX AZ
1200 PM MST TUE JAN 17 2017

NOTE: FAIR INDICATES FEW OR NO CLOUDS BELOW 12,000 FEET WITH NO
SIGNIFICANT WEATHER AND/OR OBSTRUCTIONS TO VISIBILITY.

AZZ001>003-036-172000-
NORTHWEST ARIZONA

CITY           SKY/WX    TMP DP  RH WIND       PRES   REMARKS
BULLHEAD CITY  SUNNY     55  19  24 N32G38    30.15F
KINGMAN        SUNNY     47  19  33 MISG      30.15F
$$

AZZ004>008-015-016-018-172000-
NORTH CENTRAL ARIZONA

CITY           SKY/WX    TMP DP  RH WIND       PRES   REMARKS
GRAND CANYON   SUNNY     39  26  59 NE12      30.16S WCI  32
WILLIAMS       SUNNY     43  25  49 E7        30.13F
PRESCOTT       MOSUNNY   46  33  60 NE5       30.13S
FLAGSTAFF      PTSUNNY   33  28  81 E7        30.14F WCI  27
PAYSON         CLOUDY    45  30  57 CALM      30.14F
PAGE           PTSUNNY   41  23  48 N3        30.19F
$$

AZZ009>014-017-172000-
NORTHEAST ARIZONA

CITY           SKY/WX    TMP DP  RH WIND       PRES   REMARKS
WINSLOW        MOSUNNY   45  34  65 VRB3      30.15F
SAINT JOHNS    PTSUNNY   42  35  76 NE3       30.11F
SHOW LOW       CLOUDY    37  30  75 NE3       30.13F
$$

AZZ023-172000-
GREATER PHOENIX AREA

CITY           SKY/WX    TMP DP  RH WIND       PRES   REMARKS
PHOENIX        CLOUDY    58  43  57 CALM      30.07F
BUCKEYE        PTSUNNY   54  45  71 CALM      30.10F
GLENDALE       PTSUNNY   55  46  71 CALM      30.11F
LUKE AFB       PTSUNNY   56  43  62 CALM      30.08F
DEER VALLEY    CLOUDY    56  42  59 W3        30.08F
SCOTTSDALE     CLOUDY    56  43  61 CALM      30.09F
MESA-FALCON    MOSUNNY  N/A N/A N/A W7        30.06F
MESA-GATEWAY   PTSUNNY   55  45  67 W3        30.09F
CHANDLER       SUNNY     57  45  62 CALM      30.09F
$$

AZZ027-028-172000-
SOUTHWEST MARICOPA COUNTY AND PINAL COUNTY

CITY           SKY/WX    TMP DP  RH WIND       PRES   REMARKS
CASA GRANDE    MOSUNNY   54  43  66 CALM      30.09F
$$

AZZ503-504-507>509-172000-
SOUTHEAST ARIZONA

CITY           SKY/WX    TMP DP  RH WIND       PRES   REMARKS
TUCSON         SUNNY     57  43  59 CALM      30.07F
DAVIS-MONTHAN  SUNNY     56  41  57 CALM      30.06F
NOGALES        SUNNY     54  38  54 VRB3      30.06F
SIERRA VISTA   SUNNY     54  36  50 SE8       30.08F
DOUGLAS        PTSUNNY   49  40  71 VRB5      30.08F
SAFFORD        MOSUNNY   51  39  63 CALM      30.09F
$$

AZZ020-021-025-026-031-172000-
SOUTHWEST ARIZONA

CITY           SKY/WX    TMP DP  RH WIND       PRES   REMARKS
YUMA           MOSUNNY   63  26  24 N9        30.11F
$$

CAZ031-033-041-043-047-048-061-172000-
SOUTHERN CALIFORNIA

CITY           SKY/WX    TMP DP  RH WIND       PRES   REMARKS
DOWNTOWN L.A.  SUNNY     64  39  39 VRB3      30.11F
L.A. AIRPORT   MOSUNNY   62  43  49 VRB6      30.12S
SAN DIEGO      SUNNY     61  47  59 SW3       30.13F
BURBANK        SUNNY     61  33  35 SE3       30.11S
ONTARIO        SUNNY     59  28  30 CALM      30.12F
RIVERSIDE      SUNNY     56  29  35 CALM      30.12F
PALM SPRINGS   SUNNY     66  24  20 NW3       30.14F
EL CENTRO NAS  MOSUNNY   63  38  39 N5        30.14F
IMPERIAL       SUNNY     62  40  44 N3        30.12F
BLYTHE         SUNNY     57  29  34 CALM      30.14F
NEEDLES        SUNNY     59  20  22 N20       30.16F
$$

NVZ020-UTZ003-172000-
SOUTHERN NEVADA-UTAH

CITY           SKY/WX    TMP DP  RH WIND       PRES   REMARKS
LAS VEGAS      SUNNY     50  17  27 E5        30.20F
SALT LAKE CITY MOSUNNY   29  20  69 CALM      30.30F
$$

NMZ009-TXZ055-172000-
NEW MEXICO-WEST TEXAS

CITY           SKY/WX    TMP DP  RH WIND       PRES   REMARKS
ALBUQUERQUE    MOSUNNY   46  36  68 NW6       30.15F
EL PASO        LGT RAIN  49  36  61 CALM      30.09F
$$


........................KEY........................
SKY/WX - SKY CONDITION/WEATHER
TMP    - TEMPERATURE IN FAHRENHEIT
DP     - DEW POINT IN FAHRENHEIT
RH     - RELATIVE HUMIDITY IN PERCENT
WIND   - DIRECTION AND SPEED IN MILES PER HOUR (MPH)
VRB    - VARIABLE WIND DIRECTION
PRES   - MEAN SEA LEVEL PRESSURE IN INCHES OF MERCURY
         F - FALLING PRESSURE   R - RISING PRESSURE
         S - STEADY PRESSURE
VSB    - VISIBILITY IN MILES
HX     - HEAT INDEX IN FAHRENHEIT
WCI    - WIND CHILL INDEX IN FAHRENHEIT
TC     - TEMPERATURE IN CELSIUS WHICH IS ALSO KNOWN AS
         TEMPERATURE IN CENTIGRADE
AFB    - AIR FORCE BASE
         LUKE AFB IS LUKE AIR FORCE BASE
         DAVIS-MONTHAN IS DAVIS-MONTHAN AIR FORCE BASE
NAS    - NAVAL AIR STATION
         EL CENTRO NAS IS EL CENTRO NAVAL AIR STATION
N/A    - NOT AVAILABLE




USA.gov is the U.S. government's official web portal to all federal, state and local government web resources and services.